User: anonymous   Login
Location: Brno
(49.2000°N, 16.6330°E)
Time: 19:01:59
(UTC+01:00)
Language:

Cosmos 1603 - Orbit

View from above orbital plane
View from above orbital plane
View from above satellite
View from above satellite

Ground track
Ground track

The orbit data is extracted from the following two-line orbital elements,

1 15333U 84106A   18049.94679208 -.00000087 +00000-0 -20604-4 0  9994
2 15333 071.0255 295.6630 0020521 197.2279 162.8149 14.14062111722907
Epoch (UTC): 18 February 2018 22:43:22
Eccentricity: 0.0020521
inclination: 71.0255°
perigee height: 830 km
apogee height: 860 km
right ascension of ascending node: 295.6630°
argument of perigee: 197.2279°
revolutions per day: 14.14062111
mean anomaly at epoch: 162.8149°
orbit number at epoch: 72290

The dashed part of the orbit path shows where the satellite is in the earth's shadow,  

DLR